When you browse on this site, cookies collect data to enhance your experience and personalize the content and advertising you see.
Visit our Privacy Policy to learn more. By continuing to use the site, you agree to this use of cookies and data.
  • In Österreich
  • Länderverzeichnis
  • Für 7 Tage
  • Wassertemperatur
  • Satellitenkarten
  • Wetterkarte
  • News
  • Widgets
  • user-avatar
    Anmelden

    Stündliche Wetter Warwick

    Heute, 13 Dezember, Donnerstag

    Zeit Temperatur Niederschläge Wind Luftdruck Luftfeuchtigkeit
    00:00 -1°C° 0 mm 6 m/S 757 mmHg 78%
    01:00 -1°C° 0 mm 6 m/S 757 mmHg 79%
    02:00 -1°C° 0 mm 6 m/S 757 mmHg 81%
    03:00 -1°C° 0 mm 6 m/S 756 mmHg 82%
    04:00 -1°C° 0 mm 6 m/S 756 mmHg 82%
    05:00 -1°C° 0 mm 7 m/S 756 mmHg 81%
    06:00 -1°C° 0 mm 7 m/S 755 mmHg 81%
    07:00 -1°C° 0 mm 7 m/S 756 mmHg 80%
    08:00 -1°C° 0 mm 6 m/S 756 mmHg 79%
    09:00 -1°C° 0 mm 6 m/S 756 mmHg 78%
    10:00 +1°C° 0 mm 6 m/S 756 mmHg 75%
    11:00 +2°C° 0 mm 6 m/S 757 mmHg 73%
    12:00 +2°C° 0 mm 6 m/S 757 mmHg 70%
    13:00 +2°C° 0 mm 6 m/S 757 mmHg 71%
    14:00 +2°C° 0 mm 5 m/S 757 mmHg 71%
    15:00 +2°C° 0 mm 5 m/S 757 mmHg 72%
    16:00 +1°C° 0 mm 5 m/S 757 mmHg 73%
    17:00 +1°C° 0 mm 5 m/S 758 mmHg 75%
    18:00 0°C° 0 mm 5 m/S 758 mmHg 77%
    19:00 0°C° 0 mm 4 m/S 759 mmHg 79%
    20:00 0°C° 0 mm 4 m/S 759 mmHg 82%
    21:00 0°C° 0 mm 3 m/S 759 mmHg 84%
    22:00 0°C° 0 mm 3 m/S 760 mmHg 86%
    23:00 -1°C° 0 mm 2 m/S 760 mmHg 87%

    Morgen, 14 Dezember, Freitag

    Zeit Temperatur Niederschläge Wind Luftdruck Luftfeuchtigkeit
    00:00 -1°C° 0 mm 2 m/S 761 mmHg 89%
    01:00 -1°C° 0 mm 2 m/S 761 mmHg 89%
    02:00 -1°C° 0 mm 3 m/S 761 mmHg 89%
    03:00 -1°C° 0 mm 3 m/S 761 mmHg 89%
    04:00 -1°C° 0 mm 3 m/S 761 mmHg 89%
    05:00 -1°C° 0 mm 2 m/S 761 mmHg 89%
    06:00 -1°C° 0 mm 2 m/S 761 mmHg 89%
    07:00 -1°C° 0 mm 2 m/S 762 mmHg 88%
    08:00 -1°C° 0 mm 2 m/S 762 mmHg 87%
    09:00 -1°C° 0 mm 2 m/S 762 mmHg 86%
    10:00 +1°C° 0 mm 2 m/S 762 mmHg 80%
    11:00 +1°C° 0 mm 3 m/S 762 mmHg 74%
    12:00 +3°C° 0 mm 4 m/S 762 mmHg 69%
    13:00 +2°C° 0 mm 3 m/S 762 mmHg 70%
    14:00 +2°C° 0 mm 3 m/S 761 mmHg 72%
    15:00 +3°C° 0 mm 2 m/S 761 mmHg 74%
    16:00 +1°C° 0 mm 3 m/S 761 mmHg 77%
    17:00 0°C° 0 mm 3 m/S 761 mmHg 81%
    18:00 0°C° 0 mm 3 m/S 761 mmHg 85%
    19:00 0°C° 0 mm 3 m/S 761 mmHg 84%
    20:00 -1°C° 0 mm 3 m/S 761 mmHg 84%
    21:00 -1°C° 0 mm 3 m/S 761 mmHg 83%
    22:00 -1°C° 0 mm 4 m/S 761 mmHg 81%
    23:00 -1°C° 0 mm 4 m/S 760 mmHg 79%

    übermorgen, 15 Dezember, Samstag

    Zeit Temperatur Niederschläge Wind Luftdruck Luftfeuchtigkeit
    00:00 -1°C° 0 mm 4 m/S 760 mmHg 76%
    01:00 -1°C° 0 mm 5 m/S 760 mmHg 77%
    02:00 -1°C° 0 mm 5 m/S 759 mmHg 77%
    03:00 -1°C° 0 mm 5 m/S 759 mmHg 77%
    04:00 -1°C° 0 mm 5 m/S 758 mmHg 77%
    05:00 -1°C° 0 mm 6 m/S 758 mmHg 77%
    06:00 -1°C° 0 mm 6 m/S 757 mmHg 77%
    07:00 -1°C° 0 mm 7 m/S 757 mmHg 76%
    08:00 -1°C° 0 mm 7 m/S 756 mmHg 75%
    09:00 -1°C° 0 mm 8 m/S 755 mmHg 74%
    10:00 0°C° 0.1 mm 8 m/S 755 mmHg 72%
    11:00 0°C° 0.1 mm 8 m/S 754 mmHg 70%
    12:00 0°C° 0.1 mm 9 m/S 753 mmHg 68%
    13:00 0°C° 0.4 mm 9 m/S 752 mmHg 73%
    14:00 0°C° 0.4 mm 8 m/S 751 mmHg 78%
    15:00 0°C° 0.4 mm 8 m/S 750 mmHg 83%
    16:00 +1°C° 0.5 mm 9 m/S 749 mmHg 85%
    17:00 +1°C° 0.5 mm 9 m/S 747 mmHg 88%
    18:00 +2°C° 0.5 mm 9 m/S 746 mmHg 90%
    19:00 +3°C° 1.1 mm 10 m/S 745 mmHg 91%
    20:00 +5°C° 1.1 mm 10 m/S 743 mmHg 92%
    21:00 +6°C° 1.1 mm 11 m/S 742 mmHg 92%
    22:00 +7°C° 0.5 mm 11 m/S 740 mmHg 89%
    23:00 +8°C° 0.5 mm 11 m/S 739 mmHg 85%

    16 Dezember, Sonntag

    Zeit Temperatur Niederschläge Wind Luftdruck Luftfeuchtigkeit
    00:00 +8°C° 0.5 mm 11 m/S 737 mmHg 82%
    01:00 +8°C° 0.1 mm 12 m/S 737 mmHg 79%
    02:00 +7°C° 0.1 mm 13 m/S 737 mmHg 77%
    03:00 +6°C° 0.1 mm 14 m/S 737 mmHg 75%
    04:00 +5°C° 0.1 mm 12 m/S 739 mmHg 73%
    05:00 +6°C° 0.1 mm 11 m/S 740 mmHg 72%
    06:00 +5°C° 0.1 mm 9 m/S 742 mmHg 70%
    07:00 +5°C° 0 mm 9 m/S 743 mmHg 71%
    08:00 +5°C° 0 mm 8 m/S 744 mmHg 72%
    09:00 +4°C° 0 mm 8 m/S 745 mmHg 73%
    10:00 +5°C° 0 mm 8 m/S 746 mmHg 72%
    11:00 +6°C° 0 mm 7 m/S 747 mmHg 70%
    12:00 +6°C° 0 mm 7 m/S 747 mmHg 69%
    13:00 +7°C° 0 mm 6 m/S 747 mmHg 71%
    14:00 +7°C° 0 mm 5 m/S 748 mmHg 74%
    15:00 +6°C° 0 mm 4 m/S 748 mmHg 77%
    16:00 +6°C° 0.1 mm 4 m/S 748 mmHg 81%
    17:00 +5°C° 0.1 mm 3 m/S 748 mmHg 85%
    18:00 +5°C° 0.1 mm 3 m/S 748 mmHg 89%
    19:00 +5°C° 0.2 mm 2 m/S 749 mmHg 90%
    20:00 +5°C° 0.2 mm 2 m/S 749 mmHg 91%
    21:00 +5°C° 0.2 mm 2 m/S 749 mmHg 93%
    22:00 +5°C° 0 mm 2 m/S 750 mmHg 93%
    23:00 +4°C° 0 mm 2 m/S 750 mmHg 92%

    17 Dezember, Montag

    Zeit Temperatur Niederschläge Wind Luftdruck Luftfeuchtigkeit
    00:00 +4°C° 0 mm 2 m/S 750 mmHg 92%
    01:00 +4°C° 0 mm 2 m/S 751 mmHg 92%
    02:00 +3°C° 0 mm 2 m/S 751 mmHg 91%
    03:00 +2°C° 0 mm 3 m/S 751 mmHg 91%
    04:00 +3°C° 0 mm 2 m/S 752 mmHg 91%
    05:00 +3°C° 0 mm 2 m/S 752 mmHg 91%
    06:00 +3°C° 0 mm 2 m/S 752 mmHg 91%
    07:00 +3°C° 0 mm 2 m/S 753 mmHg 91%
    08:00 +3°C° 0 mm 2 m/S 754 mmHg 91%
    09:00 +3°C° 0 mm 2 m/S 754 mmHg 91%
    10:00 +3°C° 0 mm 3 m/S 754 mmHg 88%
    11:00 +4°C° 0 mm 3 m/S 754 mmHg 84%
    12:00 +6°C° 0 mm 4 m/S 754 mmHg 81%
    13:00 +7°C° 0 mm 3 m/S 754 mmHg 83%
    14:00 +5°C° 0 mm 3 m/S 754 mmHg 85%
    15:00 +5°C° 0 mm 3 m/S 754 mmHg 87%
    16:00 +5°C° 0 mm 4 m/S 754 mmHg 88%
    17:00 +5°C° 0 mm 5 m/S 753 mmHg 89%
    18:00 +5°C° 0 mm 5 m/S 753 mmHg 89%
    19:00 +4°C° 0 mm 6 m/S 753 mmHg 89%
    20:00 +5°C° 0 mm 7 m/S 752 mmHg 89%
    21:00 +6°C° 0 mm 7 m/S 752 mmHg 88%
    22:00 +6°C° 0.2 mm 8 m/S 751 mmHg 88%
    23:00 +7°C° 0.2 mm 8 m/S 750 mmHg 88%

    18 Dezember, Dienstag

    Zeit Temperatur Niederschläge Wind Luftdruck Luftfeuchtigkeit
    00:00 +8°C° 0.2 mm 9 m/S 750 mmHg 88%
    01:00 +8°C° 0.3 mm 9 m/S 749 mmHg 88%
    02:00 +8°C° 0.3 mm 9 m/S 748 mmHg 88%
    03:00 +8°C° 0.3 mm 9 m/S 747 mmHg 88%
    04:00 +8°C° 0.3 mm 9 m/S 746 mmHg 86%
    05:00 +8°C° 0.3 mm 10 m/S 745 mmHg 84%
    06:00 +8°C° 0.3 mm 10 m/S 744 mmHg 83%
    07:00 +8°C° 0.6 mm 11 m/S 744 mmHg 82%
    08:00 +8°C° 0.6 mm 11 m/S 743 mmHg 82%
    09:00 +8°C° 0.6 mm 12 m/S 742 mmHg 82%
    10:00 +7°C° 1.6 mm 12 m/S 742 mmHg 83%
    11:00 +7°C° 1.6 mm 11 m/S 742 mmHg 83%
    12:00 +7°C° 1.6 mm 11 m/S 741 mmHg 84%
    13:00 +7°C° 1.5 mm 9 m/S 741 mmHg 86%
    14:00 +7°C° 1.5 mm 6 m/S 741 mmHg 88%
    15:00 +7°C° 1.5 mm 4 m/S 740 mmHg 90%
    16:00 +7°C° 0 mm 3 m/S 741 mmHg 90%
    17:00 +7°C° 0 mm 3 m/S 741 mmHg 90%
    18:00 +5°C° 0 mm 3 m/S 741 mmHg 90%
    19:00 +5°C° 0 mm 4 m/S 741 mmHg 90%
    20:00 +5°C° 0 mm 4 m/S 741 mmHg 90%
    21:00 +5°C° 0 mm 4 m/S 742 mmHg 89%
    22:00 +5°C° 0 mm 4 m/S 742 mmHg 89%
    23:00 +5°C° 0 mm 4 m/S 742 mmHg 90%
    Mehr zeigen